When you browse on this site, cookies collect data to enhance your experience and personalize the content and advertising you see.
Visit our Privacy Policy to learn more. By continuing to use the site, you agree to this use of cookies and data.
  • Em Portugal
  • Lista de países
  • Para 7 dias
  • Temperatura da água
  • Mapas de satélite
  • Mapa do tempo
  • Widgets de tempo
  • user-avatar
    Iniciar Sessão

    Previsão horária em Blagoevgrad

    Hoje, 19 Fevereiro, Terça-feira

    Tempo Temperatura Precipitação Vento Pressão Humidade
    00:00 +7°C° 0 mm 1 m/s 724 mmHg 63%
    01:00 +7°C° 0 mm 1 m/s 724 mmHg 64%
    02:00 +6°C° 0 mm 2 m/s 724 mmHg 65%
    03:00 +7°C° 0 mm 1 m/s 724 mmHg 65%
    04:00 +6°C° 0 mm 1 m/s 724 mmHg 66%
    05:00 +6°C° 0 mm 1 m/s 724 mmHg 66%
    06:00 +6°C° 0 mm 1 m/s 724 mmHg 65%
    07:00 +6°C° 0 mm 1 m/s 724 mmHg 64%
    08:00 +6°C° 0 mm 1 m/s 724 mmHg 63%
    09:00 +9°C° 0 mm 1 m/s 724 mmHg 58%
    10:00 +11°C° 0 mm 1 m/s 724 mmHg 52%
    11:00 +13°C° 0 mm 1 m/s 724 mmHg 47%
    12:00 +14°C° 0 mm 1 m/s 724 mmHg 46%
    13:00 +14°C° 0 mm 2 m/s 723 mmHg 44%
    14:00 +15°C° 0 mm 2 m/s 723 mmHg 43%
    15:00 +14°C° 0 mm 2 m/s 723 mmHg 45%
    16:00 +14°C° 0 mm 1 m/s 723 mmHg 48%
    17:00 +14°C° 0 mm 1 m/s 722 mmHg 51%
    18:00 +12°C° 0 mm 1 m/s 722 mmHg 55%
    19:00 +10°C° 0 mm 1 m/s 722 mmHg 60%
    20:00 +8°C° 0 mm 1 m/s 722 mmHg 65%
    21:00 +8°C° 0 mm 1 m/s 722 mmHg 66%
    22:00 +7°C° 0 mm 1 m/s 723 mmHg 68%
    23:00 +7°C° 0 mm 1 m/s 723 mmHg 69%

    Amanhã, 20 Fevereiro, Quarta-feira

    Tempo Temperatura Precipitação Vento Pressão Humidade
    00:00 +7°C° 0 mm 1 m/s 723 mmHg 69%
    01:00 +6°C° 0 mm 1 m/s 723 mmHg 70%
    02:00 +6°C° 0 mm 1 m/s 723 mmHg 71%
    03:00 +6°C° 0 mm 1 m/s 722 mmHg 71%
    04:00 +6°C° 0 mm 1 m/s 722 mmHg 72%
    05:00 +5°C° 0 mm 1 m/s 722 mmHg 73%
    06:00 +5°C° 0 mm 1 m/s 722 mmHg 72%
    07:00 +6°C° 0 mm 1 m/s 722 mmHg 72%
    08:00 +6°C° 0 mm 1 m/s 723 mmHg 71%
    09:00 +8°C° 0 mm 1 m/s 723 mmHg 63%
    10:00 +10°C° 0 mm 1 m/s 723 mmHg 55%
    11:00 +12°C° 0 mm 2 m/s 723 mmHg 46%
    12:00 +13°C° 0 mm 2 m/s 723 mmHg 44%
    13:00 +13°C° 0 mm 2 m/s 723 mmHg 42%
    14:00 +13°C° 0 mm 3 m/s 722 mmHg 39%
    15:00 +12°C° 0 mm 3 m/s 722 mmHg 42%
    16:00 +12°C° 0 mm 3 m/s 722 mmHg 44%
    17:00 +11°C° 0 mm 3 m/s 722 mmHg 47%
    18:00 +9°C° 0 mm 2 m/s 723 mmHg 54%
    19:00 +8°C° 0 mm 2 m/s 723 mmHg 60%
    20:00 +6°C° 0 mm 2 m/s 724 mmHg 67%
    21:00 +6°C° 0 mm 2 m/s 724 mmHg 71%
    22:00 +5°C° 0 mm 2 m/s 724 mmHg 76%
    23:00 +5°C° 0 mm 2 m/s 725 mmHg 80%

    Depois de amanhã, 21 Fevereiro, Quinta-feira

    Tempo Temperatura Precipitação Vento Pressão Humidade
    00:00 +6°C° 0 mm 1 m/s 725 mmHg 81%
    01:00 +6°C° 0 mm 1 m/s 725 mmHg 83%
    02:00 +5°C° 0 mm 1 m/s 725 mmHg 84%
    03:00 +5°C° 0 mm 1 m/s 725 mmHg 84%
    04:00 +5°C° 0 mm 1 m/s 725 mmHg 83%
    05:00 +5°C° 0 mm 1 m/s 725 mmHg 82%
    06:00 +5°C° 0 mm 1 m/s 725 mmHg 80%
    07:00 +5°C° 0 mm 1 m/s 726 mmHg 78%
    08:00 +5°C° 0 mm 1 m/s 726 mmHg 76%
    09:00 +6°C° 0 mm 2 m/s 726 mmHg 66%
    10:00 +8°C° 0 mm 2 m/s 727 mmHg 56%
    11:00 +9°C° 0 mm 3 m/s 727 mmHg 46%
    12:00 +10°C° 0 mm 3 m/s 726 mmHg 44%
    13:00 +11°C° 0 mm 3 m/s 726 mmHg 41%
    14:00 +11°C° 0 mm 3 m/s 726 mmHg 39%
    15:00 +12°C° 0 mm 2 m/s 726 mmHg 41%
    16:00 +10°C° 0 mm 2 m/s 726 mmHg 43%
    17:00 +10°C° 0 mm 2 m/s 725 mmHg 46%
    18:00 +8°C° 0 mm 2 m/s 725 mmHg 51%
    19:00 +8°C° 0 mm 1 m/s 726 mmHg 56%
    20:00 +6°C° 0 mm 1 m/s 726 mmHg 62%
    21:00 +6°C° 0 mm 1 m/s 726 mmHg 63%
    22:00 +6°C° 0 mm 1 m/s 726 mmHg 64%
    23:00 +5°C° 0 mm 1 m/s 726 mmHg 66%

    22 Fevereiro, Sexta-feira

    Tempo Temperatura Precipitação Vento Pressão Humidade
    00:00 +5°C° 0 mm 1 m/s 726 mmHg 65%
    01:00 +5°C° 0 mm 1 m/s 725 mmHg 65%
    02:00 +5°C° 0 mm 1 m/s 725 mmHg 65%
    03:00 +5°C° 0 mm 1 m/s 725 mmHg 67%
    04:00 +5°C° 0 mm 1 m/s 724 mmHg 69%
    05:00 +5°C° 0 mm 1 m/s 724 mmHg 71%
    06:00 +5°C° 0.1 mm 1 m/s 723 mmHg 73%
    07:00 +5°C° 0.1 mm 1 m/s 723 mmHg 74%
    08:00 +6°C° 0.1 mm 1 m/s 723 mmHg 75%
    09:00 +7°C° 0.1 mm 1 m/s 722 mmHg 73%
    10:00 +7°C° 0.1 mm 2 m/s 722 mmHg 71%
    11:00 +8°C° 0.1 mm 2 m/s 722 mmHg 69%
    12:00 +8°C° 0.2 mm 3 m/s 721 mmHg 68%
    13:00 +8°C° 0.2 mm 3 m/s 720 mmHg 67%
    14:00 +9°C° 0.2 mm 3 m/s 720 mmHg 66%
    15:00 +8°C° 0.2 mm 3 m/s 719 mmHg 68%
    16:00 +8°C° 0.2 mm 3 m/s 719 mmHg 70%
    17:00 +8°C° 0.2 mm 3 m/s 719 mmHg 71%
    18:00 +7°C° 0.4 mm 3 m/s 719 mmHg 76%
    19:00 +6°C° 0.4 mm 2 m/s 719 mmHg 80%
    20:00 +5°C° 0.4 mm 2 m/s 719 mmHg 84%
    21:00 +5°C° 0.2 mm 2 m/s 719 mmHg 85%
    22:00 +5°C° 0.2 mm 2 m/s 720 mmHg 86%
    23:00 +5°C° 0.2 mm 2 m/s 720 mmHg 88%

    23 Fevereiro, Sábado

    Tempo Temperatura Precipitação Vento Pressão Humidade
    00:00 +5°C° 0.6 mm 2 m/s 720 mmHg 88%
    01:00 +4°C° 0.6 mm 2 m/s 721 mmHg 88%
    02:00 +3°C° 0.6 mm 3 m/s 721 mmHg 88%
    03:00 +2°C° 0.4 mm 3 m/s 722 mmHg 87%
    04:00 0°C° 0.4 mm 4 m/s 723 mmHg 85%
    05:00 -1°C° 0.4 mm 5 m/s 723 mmHg 84%
    06:00 -2°C° 0.1 mm 5 m/s 724 mmHg 81%
    07:00 -4°C° 0.1 mm 5 m/s 724 mmHg 78%
    08:00 -5°C° 0.1 mm 5 m/s 725 mmHg 75%
    09:00 -5°C° 0 mm 5 m/s 726 mmHg 69%
    10:00 -5°C° 0 mm 5 m/s 726 mmHg 63%
    11:00 -4°C° 0 mm 5 m/s 727 mmHg 56%
    12:00 -4°C° 0 mm 5 m/s 727 mmHg 52%
    13:00 -2°C° 0 mm 5 m/s 727 mmHg 47%
    14:00 -2°C° 0 mm 5 m/s 726 mmHg 42%
    15:00 -2°C° 0 mm 5 m/s 726 mmHg 44%
    16:00 -4°C° 0 mm 5 m/s 726 mmHg 46%
    17:00 -5°C° 0 mm 5 m/s 726 mmHg 48%
    18:00 -6°C° 0 mm 5 m/s 726 mmHg 53%
    19:00 -7°C° 0 mm 4 m/s 727 mmHg 57%
    20:00 -8°C° 0 mm 3 m/s 727 mmHg 62%
    21:00 -8°C° 0 mm 3 m/s 727 mmHg 62%
    22:00 -8°C° 0 mm 3 m/s 727 mmHg 62%
    23:00 -8°C° 0 mm 3 m/s 727 mmHg 61%

    24 Fevereiro, Domingo

    Tempo Temperatura Precipitação Vento Pressão Humidade
    00:00 -8°C° 0 mm 3 m/s 727 mmHg 62%
    01:00 -8°C° 0 mm 3 m/s 727 mmHg 62%
    02:00 -9°C° 0 mm 4 m/s 727 mmHg 63%
    03:00 -10°C° 0 mm 4 m/s 727 mmHg 64%
    04:00 -10°C° 0 mm 4 m/s 726 mmHg 65%
    05:00 -10°C° 0 mm 4 m/s 726 mmHg 67%
    06:00 -10°C° 0 mm 4 m/s 726 mmHg 66%
    07:00 -10°C° 0 mm 4 m/s 726 mmHg 65%
    08:00 -10°C° 0 mm 4 m/s 726 mmHg 64%
    09:00 -8°C° 0 mm 5 m/s 727 mmHg 60%
    10:00 -7°C° 0 mm 5 m/s 727 mmHg 55%
    11:00 -5°C° 0 mm 5 m/s 727 mmHg 51%
    12:00 -5°C° 0 mm 5 m/s 726 mmHg 50%
    13:00 -4°C° 0 mm 6 m/s 726 mmHg 49%
    14:00 -3°C° 0 mm 6 m/s 726 mmHg 48%
    15:00 -4°C° 0 mm 6 m/s 726 mmHg 50%
    16:00 -5°C° 0 mm 5 m/s 726 mmHg 52%
    17:00 -5°C° 0 mm 5 m/s 726 mmHg 55%
    18:00 -6°C° 0 mm 5 m/s 726 mmHg 59%
    19:00 -7°C° 0 mm 5 m/s 726 mmHg 63%
    20:00 -8°C° 0 mm 4 m/s 726 mmHg 68%
    21:00 -8°C° 0 mm 4 m/s 726 mmHg 68%
    22:00 -8°C° 0 mm 4 m/s 726 mmHg 68%
    23:00 -8°C° 0 mm 4 m/s 726 mmHg 68%
    Mostrar mais